Simultaneous Nadir Overpasses (SNOs) Predictions

Prediction of SNOs between GOES-16 and METOP-C Satellite Orbit:

Table of predicted SNOs for the next 14.0 days since TLE Epoch: 5/3/2019
Index Date Time (GOES-16) GOES-16 Lat,Lon METOP-C Lat,Lon Distance(km) Time Diff (sec)
1 05/04/2019 14:48:21 -0.01, -75.23 0.84, -78.97 426.13 80
2 05/05/2019 14:25:03 -0.01, -75.24 -0.30, -73.98 143.83 80
3 05/07/2019 02:46:44 0.01, -75.24 -0.77, -78.57 380.88 80
4 05/08/2019 02:23:26 0.00, -75.24 0.37, -73.58 189.16 80
5 05/09/2019 14:44:57 0.00, -75.28 0.66, -78.14 326.69 80
6 05/10/2019 14:21:39 0.01, -75.29 -0.48, -73.15 243.49 80
7 05/12/2019 02:43:20 -0.01, -75.29 -0.58, -77.75 280.71 80
8 05/13/2019 02:20:02 -0.01, -75.30 0.56, -72.76 289.81 80
9 05/14/2019 14:41:33 0.01, -75.34 0.48, -77.31 225.09 80
10 05/15/2019 14:18:14 0.01, -75.36 -0.66, -72.33 345.90 80
11 05/17/2019 02:39:57 -0.01, -75.37 -0.33, -76.93 176.90 80




NCC Satellite Simultaneous Nadir Overpasses (SNOs) Prediction Service
